N7XRD Weather Reports


time (UTC)temp
F
wind
direction
speed
knots
gust
knots
rain 1hr
in
rain 24hr
in
rain mn
in
humidity
%
barometer
mb
20260507082004 58 0 0.0 0.0 0.00 0.00 0.00 74 1013.9
20260507081005 58 0 0.0 0.0 0.00 0.00 0.00 74 1013.9
20260507080005 58 1 0.0 0.9 0.00 0.00 0.00 73 1013.8
20260507074005 59 0 0.0 2.6 0.00 0.00 0.00 71 1013.7
20260507073005 60 295 0.0 2.6 0.00 0.00 0.00 71 1013.6
20260507072006 60 310 1.7 2.6 0.00 0.00 0.00 71 1013.6
20260507071006 60 297 0.0 2.6 0.00 0.00 0.00 70 1013.6
20260507070009 61 1 0.0 1.7 0.00 0.00 0.00 69 1013.4
20260507065005 61 1 0.0 1.7 0.00 0.00 0.00 69 1013.4
20260507063005 61 1 0.0 1.7 0.00 0.00 0.00 68 1013.1
20260507062005 61 1 0.9 1.7 0.00 0.00 0.00 67 1013.0
20260507061005 61 344 0.9 2.6 0.00 0.00 0.00 67 1013.0
20260507055006 62 48 0.0 0.0 0.00 0.00 0.00 63 1013.1
20260507053005 63 48 0.0 0.0 0.00 0.00 0.00 62 1013.0
20260507052005 63 10 0.0 0.9 0.00 0.00 0.00 62 1013.0
20260507051005 63 1 0.0 0.9 0.00 0.00 0.00 61 1012.9
20260507045005 64 1 0.9 1.7 0.00 0.00 0.00 59 1012.8
20260507044005 64 1 0.0 5.2 0.00 0.00 0.00 59 1012.7
20260507042005 65 36 0.0 0.0 0.00 0.00 0.00 59 1012.7
20260507041004 66 15 0.0 0.0 0.00 0.00 0.00 57 1012.6
20260507040005 66 31 0.0 0.0 0.00 0.00 0.00 56 1012.6
20260507034005 67 31 0.0 0.0 0.00 0.00 0.00 56 1012.3
20260507033005 67 34 0.0 0.0 0.00 0.00 0.00 56 1012.2
20260507032005 68 356 0.0 0.0 0.00 0.00 0.00 53 1012.1
20260507031005 69 322 0.0 0.0 0.00 0.00 0.00 50 1012.1
20260507030005 70 322 0.0 0.0 0.00 0.00 0.00 49 1012.1
20260507025005 71 2 0.0 0.0 0.00 0.00 0.00 48 1012.1
20260507024005 71 61 0.0 0.0 0.00 0.00 0.00 46 1012.1
20260507023005 72 42 0.0 2.6 0.00 0.00 0.00 46 1012.0
20260507022005 73 103 1.7 2.6 0.00 0.00 0.00 45 1012.0
20260507021005 73 129 0.0 2.6 0.00 0.00 0.00 46 1011.9
20260507020004 74 149 1.7 2.6 0.00 0.00 0.00 46 1011.9
20260507014005 75 242 2.6 6.1 0.00 0.00 0.00 43 1011.7
20260507013005 76 6 0.0 1.7 0.00 0.00 0.00 46 1011.6
20260507012005 76 323 0.9 2.6 0.00 0.00 0.00 43 1011.6
20260507011004 77 289 2.6 6.1 0.00 0.00 0.00 40 1011.6
20260507005005 77 100 2.6 6.1 0.00 0.00 0.00 44 1011.6
20260507004005 77 298 0.0 5.2 0.00 0.00 0.00 44 1011.6
20260507003005 77 320 3.5 8.7 0.00 0.00 0.00 46 1011.7
20260507002004 78 182 0.9 5.2 0.00 0.00 0.00 50 1011.6
20260507001005 78 237 1.7 5.2 0.00 0.00 0.00 41 1011.6
20260507000005 78 150 0.9 6.1 0.00 0.00 0.00 43 1011.5
20260506234005 79 154 4.3 6.1 0.00 0.00 0.00 40 1011.4
20260506233006 79 167 0.9 5.2 0.00 0.00 0.00 42 1011.4
20260506232004 79 194 2.6 7.0 0.00 0.00 0.00 39 1011.4
20260506230005 81 50 2.6 6.1 0.00 0.00 0.00 40 1011.6
20260506225005 81 8 3.5 6.1 0.00 0.00 0.00 36 1011.8
20260506224004 82 144 1.7 5.2 0.00 0.00 0.00 36 1012.0
20260506223006 81 133 1.7 5.2 0.00 0.00 0.00 37 1012.1
20260506222004 81 231 3.5 7.0 0.00 0.00 0.00 34 1012.1
20260506221005 81 279 4.3 8.7 0.00 0.00 0.00 35 1012.3
20260506220006 81 187 1.7 8.7 0.00 0.00 0.00 38 1012.3
20260506215006 81 357 4.3 7.0 0.00 0.00 0.00 38 1012.3
20260506214004 81 52 2.6 15.6 0.00 0.00 0.00 39 1012.4
20260506213005 81 144 4.3 8.7 0.00 0.00 0.00 40 1012.4
20260506212004 81 200 6.1 10.4 0.00 0.00 0.00 37 1012.4
20260506211005 81 291 5.2 8.7 0.00 0.00 0.00 36 1012.6
20260506210005 81 84 1.7 7.0 0.00 0.00 0.00 38 1012.7
20260506203004 80 223 4.3 6.1 0.00 0.00 0.00 36 1012.9
20260506201004 79 209 5.2 7.0 0.00 0.00 0.00 38 1012.9
20260506200004 78 264 4.3 6.1 0.00 0.00 0.00 38 1013.0
20260506195004 77 132 1.7 7.8 0.00 0.00 0.00 42 1013.1
20260506194005 77 161 3.5 6.1 0.00 0.00 0.00 43 1013.2
20260506193004 76 328 2.6 6.1 0.00 0.00 0.00 41 1013.4
20260506192004 75 206 6.1 7.0 0.00 0.00 0.00 41 1013.5
20260506191007 74 222 4.3 6.1 0.00 0.00 0.00 46 1013.7
20260506190006 74 225 4.3 7.0 0.00 0.00 0.00 40 1013.8
20260506185004 72 148 2.6 7.0 0.00 0.00 0.00 44 1013.9
20260506183005 71 265 5.2 7.0 0.00 0.00 0.00 41 1014.3
20260506182005 70 248 4.3 5.2 0.00 0.00 0.00 43 1014.4
20260506181005 69 254 5.2 7.0 0.00 0.00 0.00 43 1014.5
20260506180006 68 236 1.7 7.0 0.00 0.00 0.00 45 1014.5
20260506175004 68 246 4.3 7.0 0.00 0.00 0.00 46 1014.6
20260506174005 67 106 2.6 6.1 0.00 0.00 0.00 48 1014.7
20260506173004 66 73 1.7 6.1 0.00 0.00 0.00 49 1014.9
20260506172006 64 295 3.5 6.1 0.00 0.00 0.00 48 1015.0
20260506171004 64 281 3.5 6.1 0.00 0.00 0.00 48 1015.0
20260506170004 63 73 2.6 5.2 0.00 0.00 0.00 49 1015.1
20260506162005 60 274 3.5 6.1 0.00 0.00 0.00 50 1015.7
20260506161005 60 244 2.6 6.1 0.00 0.00 0.00 52 1015.9
20260506160004 59 175 1.7 5.2 0.00 0.00 0.00 54 1016.0
20260506155005 59 147 2.6 5.2 0.00 0.00 0.00 56 1016.1
20260506154004 58 91 2.6 2.6 0.00 0.00 0.00 60 1016.2
20260506153004 57 129 2.6 5.2 0.00 0.00 0.00 65 1016.4
20260506151005 55 123 0.9 5.2 0.00 0.00 0.00 72 1016.6
20260506150005 53 130 0.9 2.6 0.00 0.00 0.00 73 1016.8
20260506145005 53 124 2.6 5.2 0.00 0.00 0.00 75 1017.0
20260506144004 51 127 2.6 2.6 0.00 0.00 0.00 77 1017.1
20260506143005 49 113 0.0 0.0 0.00 0.00 0.00 80 1017.3
20260506141005 47 195 0.0 0.0 0.00 0.00 0.00 84 1017.6
20260506140004 46 207 0.0 0.0 0.00 0.00 0.00 87 1017.7
20260506135004 45 207 0.0 0.0 0.00 0.00 0.00 89 1017.8
20260506134004 45 207 0.0 0.0 0.00 0.00 0.00 88 1017.8
20260506133005 45 207 0.0 0.0 0.00 0.00 0.00 90 1017.7
20260506132005 44 207 0.0 0.0 0.00 0.00 0.00 87 1017.5
20260506131005 44 207 0.0 0.0 0.00 0.00 0.00 90 1017.5
20260506130005 44 207 0.0 0.0 0.00 0.00 0.00 87 1017.4
20260506125005 44 207 0.0 0.0 0.00 0.00 0.00 88 1017.3
20260506124004 44 207 0.0 0.0 0.00 0.00 0.00 86 1017.2
20260506123004 44 207 0.0 0.0 0.00 0.00 0.00 85 1017.1
20260506122005 44 207 0.0 0.0 0.00 0.00 0.00 85 1016.9
20260506121004 44 207 0.0 0.0 0.00 0.00 0.00 84 1016.8
20260506120005 45 207 0.0 0.0 0.00 0.00 0.00 84 1016.7
20260506115005 45 207 0.0 0.0 0.00 0.00 0.00 80 1016.8
20260506114005 45 207 0.0 0.0 0.00 0.00 0.00 79 1016.7
20260506113005 46 207 0.0 0.0 0.00 0.00 0.00 78 1016.6
20260506111004 46 207 0.0 0.0 0.00 0.00 0.00 74 1016.6
20260506110004 46 176 0.0 0.0 0.00 0.00 0.00 74 1016.4
20260506105004 46 1 0.0 1.7 0.00 0.00 0.00 73 1016.4
20260506104004 46 1 0.9 1.7 0.00 0.00 0.00 73 1016.4
20260506103004 46 1 0.0 0.0 0.00 0.00 0.00 73 1016.4
20260506101004 47 1 0.0 0.0 0.00 0.00 0.00 72 1016.3
20260506094004 48 2 1.7 1.7 0.00 0.00 0.00 70 1015.9
20260506093004 48 30 0.0 2.6 0.00 0.00 0.00 69 1016.0
20260506092005 48 30 0.9 5.2 0.00 0.00 0.00 70 1015.9
20260506091005 49 296 0.0 2.6 0.00 0.00 0.00 67 1015.8
20260506090005 49 330 1.7 1.7 0.00 0.00 0.00 67 1015.5
20260506085004 49 15 0.9 1.7 0.00 0.00 0.00 66 1015.5
20260506084004 50 1 1.7 1.7 0.00 0.00 0.00 65 1015.6
20260506083004 50 20 0.0 1.7 0.00 0.00 0.00 65 1015.5